VLG5BP LEZL-LEBB

Flight info

Callsign VLG5BP
Flight time 1h 3m
Altitude 34000
Route HIJ DCT PARKA DCT TLD DCT SIE DCT EDIGO DCT DGO
Aircraft A320/M-SDE3FGHIRWY/LB1

Departure

Time 2026-04-15 08:40
Airport Seville Airport (LEZL)

Arrival

Time 2026-04-15 09:44
Airport Bilbao Airport (LEBB)
Time Latitude Longitude Altitude Speed Heading
2026-04-15 08:16 37.42184 -5.89981 94 ft 0 kts 314°
2026-04-15 08:33 37.42179 -5.89974 94 ft 4 kts 313°
2026-04-15 08:33 37.42161 -5.89948 92 ft 4 kts 302°
2026-04-15 08:34 37.42151 -5.89919 93 ft 4 kts 274°
2026-04-15 08:34 37.42155 -5.89894 94 ft 1 kts 225°
2026-04-15 08:34 37.42158 -5.89890 93 ft 0 kts 225°
2026-04-15 08:36 37.42150 -5.89901 93 ft 5 kts 225°
2026-04-15 08:36 37.42125 -5.89932 93 ft 9 kts 225°
2026-04-15 08:37 37.42065 -5.90010 96 ft 9 kts 232°
2026-04-15 08:37 37.42034 -5.90082 95 ft 10 kts 213°
2026-04-15 08:37 37.41985 -5.90137 98 ft 10 kts 248°
2026-04-15 08:37 37.41985 -5.90201 98 ft 12 kts 272°
2026-04-15 08:38 37.41985 -5.90315 97 ft 14 kts 269°
2026-04-15 08:38 37.41982 -5.90444 94 ft 17 kts 268°
2026-04-15 08:38 37.41979 -5.90605 93 ft 19 kts 269°
2026-04-15 08:38 37.41978 -5.90778 92 ft 19 kts 270°
2026-04-15 08:39 37.41969 -5.90940 93 ft 18 kts 252°
2026-04-15 08:39 37.41902 -5.91091 90 ft 21 kts 240°
2026-04-15 08:39 37.41804 -5.91149 92 ft 15 kts 123°
2026-04-15 08:39 37.41789 -5.90971 94 ft 41 kts 89°
2026-04-15 08:40 37.41794 -5.90293 98 ft 109 kts 90°
2026-04-15 08:40 37.41799 -5.89124 104 ft 156 kts 89°
2026-04-15 08:40 37.41775 -5.87723 626 ft 159 kts 92°
2026-04-15 08:40 37.41693 -5.86335 1303 ft 158 kts 93°
2026-04-15 08:41 37.41650 -5.84926 1748 ft 168 kts 90°
2026-04-15 08:41 37.41635 -5.83407 2213 ft 178 kts 89°
2026-04-15 08:41 37.41663 -5.81807 2647 ft 191 kts 82°
2026-04-15 08:41 37.41920 -5.80065 2921 ft 216 kts 76°
2026-04-15 08:42 37.42302 -5.78129 3304 ft 240 kts 73°
2026-04-15 08:42 37.43159 -5.76247 3809 ft 259 kts 43°
2026-04-15 08:42 37.44698 -5.75022 4625 ft 265 kts 25°
2026-04-15 08:42 37.46377 -5.74028 5547 ft 269 kts 25°
2026-04-15 08:43 37.48074 -5.73017 6433 ft 272 kts 25°
2026-04-15 08:43 37.49800 -5.71982 7306 ft 276 kts 25°
2026-04-15 08:43 37.51549 -5.70930 8158 ft 280 kts 25°
2026-04-15 08:43 37.53320 -5.69860 8989 ft 284 kts 25°
2026-04-15 08:44 37.55089 -5.68787 9782 ft 288 kts 25°
2026-04-15 08:44 37.56905 -5.67684 10552 ft 294 kts 25°
2026-04-15 08:44 37.58818 -5.66523 10811 ft 317 kts 24°
2026-04-15 08:44 37.60879 -5.65271 11016 ft 339 kts 24°
2026-04-15 08:45 37.63028 -5.63966 11557 ft 347 kts 24°
2026-04-15 08:45 37.65220 -5.62634 12248 ft 350 kts 24°
2026-04-15 08:45 37.67423 -5.61295 12978 ft 352 kts 24°
2026-04-15 08:45 37.69636 -5.59946 13623 ft 356 kts 24°
2026-04-15 08:46 37.71885 -5.58578 14269 ft 360 kts 24°
2026-04-15 08:46 37.74151 -5.57200 14851 ft 364 kts 24°
2026-04-15 08:46 37.76453 -5.55801 15444 ft 368 kts 24°
2026-04-15 08:46 37.78773 -5.54387 16003 ft 372 kts 24°
2026-04-15 08:47 37.81116 -5.52959 16561 ft 375 kts 24°
2026-04-15 08:47 37.83485 -5.51515 17099 ft 379 kts 24°
2026-04-15 08:47 37.85876 -5.50056 17642 ft 383 kts 24°
2026-04-15 08:47 37.88255 -5.48602 18175 ft 387 kts 24°
2026-04-15 08:48 37.90693 -5.47109 18712 ft 390 kts 24°
2026-04-15 08:48 37.93150 -5.45606 19255 ft 394 kts 24°
2026-04-15 08:48 37.95628 -5.44087 19787 ft 397 kts 24°
2026-04-15 08:48 37.98121 -5.42556 20320 ft 401 kts 24°
2026-04-15 08:49 38.00645 -5.41004 20840 ft 404 kts 24°
2026-04-15 08:49 38.03182 -5.39446 21304 ft 407 kts 23°
2026-04-15 08:49 38.05746 -5.37875 21754 ft 411 kts 23°
2026-04-15 08:49 38.08330 -5.36289 22188 ft 414 kts 23°
2026-04-15 08:50 38.10931 -5.34692 22623 ft 417 kts 23°
2026-04-15 08:50 38.13545 -5.33085 23054 ft 419 kts 23°
2026-04-15 08:50 38.16182 -5.31462 23478 ft 422 kts 23°
2026-04-15 08:50 38.18830 -5.29826 23882 ft 425 kts 23°
2026-04-15 08:51 38.21500 -5.28174 24283 ft 427 kts 23°
2026-04-15 08:51 38.24175 -5.26516 24689 ft 430 kts 23°
2026-04-15 08:51 38.26877 -5.24843 25091 ft 432 kts 23°
2026-04-15 08:51 38.29586 -5.23166 25470 ft 434 kts 23°
2026-04-15 08:52 38.32301 -5.21482 25850 ft 436 kts 23°
2026-04-15 08:52 38.35040 -5.19784 26223 ft 438 kts 22°
2026-04-15 08:52 38.37791 -5.18080 26611 ft 440 kts 22°
2026-04-15 08:52 38.40550 -5.16369 26983 ft 442 kts 22°
2026-04-15 08:53 38.43325 -5.14644 27346 ft 444 kts 22°
2026-04-15 08:53 38.46077 -5.12930 27693 ft 446 kts 22°
2026-04-15 08:53 38.48989 -5.11457 28029 ft 444 kts 13°
2026-04-15 08:53 38.51999 -5.10625 28354 ft 442 kts
2026-04-15 08:54 38.55030 -5.10423 28686 ft 440 kts 355°
2026-04-15 08:54 38.58075 -5.10714 29116 ft 438 kts 352°
2026-04-15 08:54 38.61117 -5.11037 29594 ft 437 kts 352°
2026-04-15 08:54 38.64136 -5.11346 30056 ft 436 kts 352°
2026-04-15 08:55 38.67153 -5.11645 30516 ft 434 kts 352°
2026-04-15 08:55 38.70175 -5.11941 30967 ft 433 kts 352°
2026-04-15 08:55 38.73171 -5.12237 31389 ft 432 kts 352°
2026-04-15 08:55 38.76175 -5.12539 31811 ft 432 kts 352°
2026-04-15 08:56 38.79167 -5.12845 32232 ft 431 kts 352°
2026-04-15 08:56 38.82151 -5.13151 32643 ft 430 kts 352°
2026-04-15 08:56 38.85136 -5.13456 33072 ft 429 kts 352°
2026-04-15 08:56 38.88080 -5.13755 33484 ft 428 kts 352°
2026-04-15 08:57 38.91047 -5.14062 33890 ft 428 kts 352°
2026-04-15 08:57 38.94022 -5.14371 34208 ft 429 kts 352°
2026-04-15 08:57 38.97019 -5.14373 34276 ft 437 kts
2026-04-15 08:57 39.00033 -5.13695 34283 ft 445 kts 12°
2026-04-15 08:58 39.02958 -5.12321 34283 ft 451 kts 21°
2026-04-15 08:58 39.11042 -5.05848 34286 ft 457 kts 28°
2026-04-15 08:59 39.16395 -5.01430 34284 ft 457 kts 28°
2026-04-15 08:59 39.21749 -4.97003 34285 ft 457 kts 28°
2026-04-15 09:00 39.27092 -4.92563 34286 ft 457 kts 28°
2026-04-15 09:00 39.32444 -4.88104 34286 ft 457 kts 28°
2026-04-15 09:01 39.37781 -4.83650 34288 ft 457 kts 28°
2026-04-15 09:01 39.43143 -4.79179 34287 ft 457 kts 28°
2026-04-15 09:02 39.48480 -4.74722 34295 ft 457 kts 28°
2026-04-15 09:02 39.53780 -4.70269 34291 ft 457 kts 29°
2026-04-15 09:03 39.59119 -4.65778 34293 ft 457 kts 29°
2026-04-15 09:03 39.64442 -4.61295 34300 ft 456 kts 29°
2026-04-15 09:04 39.69770 -4.56802 34294 ft 456 kts 29°
2026-04-15 09:04 39.75083 -4.52310 34298 ft 456 kts 29°
2026-04-15 09:05 39.80406 -4.47809 34294 ft 456 kts 29°
2026-04-15 09:05 39.85703 -4.43319 34292 ft 456 kts 29°
2026-04-15 09:06 39.91010 -4.38809 34293 ft 455 kts 29°
2026-04-15 09:06 39.96325 -4.34297 34290 ft 453 kts 27°
2026-04-15 09:07 40.01953 -4.30692 34284 ft 450 kts 21°
2026-04-15 09:07 40.07633 -4.27238 34278 ft 450 kts 21°
2026-04-15 09:08 40.13278 -4.23804 34280 ft 450 kts 21°
2026-04-15 09:08 40.18963 -4.20333 34277 ft 450 kts 21°
2026-04-15 09:09 40.24602 -4.16876 34279 ft 451 kts 21°
2026-04-15 09:09 40.30287 -4.13379 34281 ft 451 kts 21°
2026-04-15 09:10 40.35975 -4.09872 34282 ft 451 kts 21°
2026-04-15 09:10 40.41662 -4.06368 34282 ft 451 kts 21°
2026-04-15 09:11 40.47356 -4.02847 34282 ft 452 kts 21°
2026-04-15 09:11 40.53006 -3.99352 34276 ft 452 kts 21°
2026-04-15 09:12 40.58698 -3.95831 34283 ft 451 kts 21°
2026-04-15 09:12 40.64374 -3.92309 34291 ft 451 kts 21°
2026-04-15 09:13 40.70045 -3.88787 34288 ft 450 kts 21°
2026-04-15 09:13 40.75701 -3.85263 34286 ft 450 kts 21°
2026-04-15 09:14 40.81367 -3.81722 34281 ft 450 kts 21°
2026-04-15 09:14 40.87030 -3.78169 34283 ft 450 kts 21°
2026-04-15 09:15 40.92688 -3.74622 34281 ft 450 kts 21°
2026-04-15 09:15 40.98317 -3.71094 34264 ft 451 kts 21°
2026-04-15 09:16 41.04006 -3.67519 34250 ft 453 kts 21°
2026-04-15 09:16 41.09720 -3.63924 34249 ft 455 kts 21°
2026-04-15 09:17 41.15460 -3.60301 34255 ft 457 kts 20°
2026-04-15 09:17 41.21295 -3.56952 34258 ft 456 kts 17°
2026-04-15 09:18 41.27205 -3.53843 34259 ft 456 kts 17°
2026-04-15 09:18 41.33072 -3.50732 34260 ft 457 kts 17°
2026-04-15 09:19 41.38970 -3.47510 34264 ft 458 kts 18°
2026-04-15 09:19 41.44870 -3.44245 34264 ft 459 kts 18°
2026-04-15 09:20 41.50779 -3.40985 34263 ft 459 kts 18°
2026-04-15 09:20 41.56690 -3.37739 34265 ft 459 kts 18°
2026-04-15 09:21 41.62558 -3.34502 34265 ft 459 kts 18°
2026-04-15 09:21 41.68467 -3.31226 34263 ft 459 kts 18°
2026-04-15 09:22 41.74372 -3.27941 34266 ft 460 kts 18°
2026-04-15 09:22 41.79287 -3.25205 34267 ft 460 kts 18°
2026-04-15 09:23 41.82244 -3.23562 34162 ft 460 kts 18°
2026-04-15 09:23 41.85200 -3.21920 33911 ft 460 kts 18°
2026-04-15 09:23 41.88152 -3.20276 33659 ft 460 kts 18°
2026-04-15 09:23 41.91109 -3.18630 33409 ft 460 kts 18°
2026-04-15 09:24 41.94070 -3.16979 33175 ft 461 kts 18°
2026-04-15 09:24 41.97031 -3.15324 32915 ft 461 kts 18°
2026-04-15 09:24 41.99994 -3.13665 32658 ft 461 kts 18°
2026-04-15 09:24 42.02956 -3.12006 32409 ft 462 kts 18°
2026-04-15 09:25 42.05938 -3.10335 32160 ft 465 kts 18°
2026-04-15 09:25 42.08932 -3.08654 31907 ft 467 kts 18°
2026-04-15 09:25 42.11938 -3.06961 31650 ft 468 kts 18°
2026-04-15 09:25 42.14944 -3.05265 31406 ft 468 kts 18°
2026-04-15 09:26 42.17921 -3.03585 31165 ft 469 kts 19°
2026-04-15 09:26 42.20930 -3.01888 30912 ft 469 kts 18°
2026-04-15 09:26 42.23940 -3.00193 30248 ft 470 kts 18°
2026-04-15 09:26 42.26984 -2.98480 28992 ft 480 kts 19°
2026-04-15 09:27 42.30098 -2.96727 27844 ft 486 kts 19°
2026-04-15 09:27 42.33194 -2.94973 27228 ft 479 kts 19°
2026-04-15 09:27 42.36252 -2.93233 26456 ft 474 kts 19°
2026-04-15 09:27 42.39290 -2.91503 25710 ft 470 kts 20°
2026-04-15 09:28 42.42287 -2.89809 24977 ft 463 kts 18°
2026-04-15 09:28 42.45336 -2.88539 24299 ft 454 kts
2026-04-15 09:28 42.48391 -2.87916 23636 ft 445 kts
2026-04-15 09:28 42.51467 -2.87737 22975 ft 439 kts 359°
2026-04-15 09:29 42.54499 -2.87578 22318 ft 433 kts 360°
2026-04-15 09:29 42.57492 -2.87415 21684 ft 427 kts 360°
2026-04-15 09:29 42.60436 -2.87253 21065 ft 421 kts 360°
2026-04-15 09:29 42.63349 -2.87095 20481 ft 415 kts 360°
2026-04-15 09:30 42.66210 -2.86938 19912 ft 410 kts 360°
2026-04-15 09:30 42.69012 -2.86791 19369 ft 405 kts 358°
2026-04-15 09:30 42.71800 -2.87052 18835 ft 397 kts 348°
2026-04-15 09:30 42.74450 -2.87948 18316 ft 390 kts 339°
2026-04-15 09:31 42.76906 -2.89425 17806 ft 382 kts 329°
2026-04-15 09:31 42.79203 -2.91212 17298 ft 377 kts 328°
2026-04-15 09:31 42.81464 -2.92967 16781 ft 372 kts 328°
2026-04-15 09:31 42.83708 -2.94701 16264 ft 368 kts 329°
2026-04-15 09:32 42.85927 -2.96414 15732 ft 364 kts 329°
2026-04-15 09:32 42.88117 -2.98102 15206 ft 360 kts 329°
2026-04-15 09:32 42.90286 -2.99778 14662 ft 356 kts 328°
2026-04-15 09:32 42.92430 -3.01442 14114 ft 354 kts 329°
2026-04-15 09:33 42.94568 -3.03106 13560 ft 351 kts 329°
2026-04-15 09:33 42.96689 -3.04753 13006 ft 349 kts 329°
2026-04-15 09:33 42.98761 -3.06363 12464 ft 346 kts 329°
2026-04-15 09:33 43.00840 -3.07981 11918 ft 343 kts 329°
2026-04-15 09:34 43.02908 -3.09593 11367 ft 341 kts 329°
2026-04-15 09:34 43.04953 -3.11187 11032 ft 332 kts 329°
2026-04-15 09:34 43.06917 -3.12718 10905 ft 319 kts 329°
2026-04-15 09:34 43.08809 -3.14198 10781 ft 307 kts 329°
2026-04-15 09:35 43.10628 -3.15621 10652 ft 296 kts 329°
2026-04-15 09:35 43.12392 -3.17001 10442 ft 289 kts 329°
2026-04-15 09:35 43.14128 -3.18363 10198 ft 285 kts 329°
2026-04-15 09:35 43.15817 -3.19684 10075 ft 283 kts 329°
2026-04-15 09:36 43.17534 -3.21027 9930 ft 283 kts 329°
2026-04-15 09:36 43.19248 -3.22373 9531 ft 289 kts 329°
2026-04-15 09:36 43.20986 -3.23740 9231 ft 285 kts 329°
2026-04-15 09:36 43.22702 -3.25090 8885 ft 285 kts 329°
2026-04-15 09:37 43.24423 -3.26437 8535 ft 284 kts 330°
2026-04-15 09:37 43.26259 -3.27409 8189 ft 283 kts 346°
2026-04-15 09:37 43.28212 -3.27766 7839 ft 283 kts 354°
2026-04-15 09:37 43.30178 -3.27899 7501 ft 282 kts 358°
2026-04-15 09:38 43.32135 -3.27832 7174 ft 281 kts
2026-04-15 09:38 43.34109 -3.27566 6523 ft 291 kts
2026-04-15 09:38 43.36155 -3.27063 5732 ft 305 kts 12°
2026-04-15 09:38 43.38240 -3.26292 5012 ft 314 kts 17°
2026-04-15 09:39 43.40163 -3.24999 4777 ft 305 kts 40°
2026-04-15 09:39 43.41313 -3.22701 4660 ft 292 kts 72°
2026-04-15 09:39 43.41386 -3.19984 4566 ft 279 kts 105°
2026-04-15 09:39 43.40431 -3.17759 4264 ft 275 kts 136°
2026-04-15 09:40 43.39023 -3.15993 3923 ft 274 kts 130°
2026-04-15 09:40 43.38166 -3.13682 3562 ft 272 kts 108°
2026-04-15 09:40 43.37479 -3.11253 3196 ft 271 kts 114°
2026-04-15 09:40 43.36667 -3.08974 2830 ft 260 kts 117°
2026-04-15 09:41 43.35861 -3.06803 2481 ft 247 kts 117°
2026-04-15 09:41 43.35128 -3.04801 2159 ft 224 kts 116°
2026-04-15 09:41 43.34459 -3.02966 1860 ft 206 kts 116°
2026-04-15 09:41 43.33860 -3.01323 1610 ft 193 kts 115°
2026-04-15 09:42 43.33286 -2.99750 1352 ft 175 kts 116°
2026-04-15 09:42 43.32774 -2.98338 1077 ft 155 kts 116°
2026-04-15 09:42 43.32307 -2.97094 929 ft 141 kts 118°
2026-04-15 09:42 43.31866 -2.95928 694 ft 134 kts 116°
2026-04-15 09:43 43.31449 -2.94777 585 ft 134 kts 116°
2026-04-15 09:43 43.31044 -2.93620 337 ft 133 kts 116°
2026-04-15 09:43 43.30631 -2.92479 217 ft 134 kts 117°
2026-04-15 09:43 43.30218 -2.91370 126 ft 117 kts 113°
2026-04-15 09:44 43.29926 -2.90559 126 ft 76 kts 117°
2026-04-15 09:44 43.29803 -2.90228 124 ft 32 kts 117°
2026-04-15 09:44 43.29704 -2.89955 122 ft 33 kts 116°
2026-04-15 09:44 43.29640 -2.89678 126 ft 29 kts 76°
2026-04-15 09:45 43.29706 -2.89486 121 ft 17 kts
2026-04-15 09:45 43.29746 -2.89572 119 ft 11 kts 305°
2026-04-15 09:45 43.29788 -2.89675 124 ft 14 kts 296°
2026-04-15 09:45 43.29833 -2.89804 121 ft 16 kts 296°
2026-04-15 09:46 43.29888 -2.89956 122 ft 19 kts 296°
2026-04-15 09:46 43.29952 -2.90130 121 ft 22 kts 297°
2026-04-15 09:46 43.30010 -2.90284 122 ft 15 kts 298°
2026-04-15 09:46 43.30063 -2.90420 123 ft 8 kts 297°
2026-04-15 09:47 43.30064 -2.90424 124 ft 0 kts 297°
2026-04-15 09:47 43.30071 -2.90444 121 ft 10 kts 295°
2026-04-15 09:47 43.30139 -2.90569 127 ft 13 kts 339°
2026-04-15 09:48 43.30194 -2.90543 131 ft 11 kts 25°
2026-04-15 09:48 43.30276 -2.90557 129 ft 14 kts 333°
2026-04-15 09:48 43.30338 -2.90625 123 ft 5 kts 309°
2026-04-15 09:48 43.30350 -2.90647 124 ft 4 kts 309°
2026-04-15 09:49 43.30376 -2.90661 123 ft 4 kts 356°
2026-04-15 09:49 43.30407 -2.90643 126 ft 3 kts 29°
2026-04-15 09:49 43.30416 -2.90636 131 ft 0 kts 28°